This is the latest recevied weather packets stored in our database for station/object KC0QBU-13. If no packets are shown the sender has not sent any weather packets the latest 10 day(s).
| Time | Temp. | Humidity | Pressure | Rain* | Wind** | Luminosity | Snow |
|---|---|---|---|---|---|---|---|
| 1777747401 | 16.11° C | 37% | 1021.7 hPa | 0 mm | - | - | - |
| 1777747101 | 16.11° C | 35% | 1021.8 hPa | 0 mm | - | - | - |
| 1777746801 | 16.67° C | 33% | 1021.8 hPa | 0 mm | - | - | - |
| 1777746501 | 16.11° C | 34% | 1021.9 hPa | 0 mm | - | - | - |
| 1777746171 | 16.11° C | 36% | 1022 hPa | 0 mm | - | - | - |
| 1777745871 | 16.11° C | 36% | 1022 hPa | 0 mm | - | - | - |
| 1777745541 | 16.67° C | 38% | 1022.1 hPa | 0 mm | - | - | - |
| 1777745241 | 16.67° C | 35% | 1022.1 hPa | 0 mm | - | - | - |
| 1777744941 | 16.11° C | 35% | 1022.1 hPa | 0 mm | - | - | - |
| 1777744611 | 16.11° C | 34% | 1022.4 hPa | 0 mm | - | - | - |
| 1777744281 | 16.11° C | 33% | 1022.5 hPa | 0 mm | - | - | - |
| 1777743981 | 16.11° C | 35% | 1022.5 hPa | 0 mm | - | - | - |
| 1777743651 | 15.56° C | 34% | 1022.4 hPa | 0 mm | - | - | - |
| 1777743351 | 15.56° C | 33% | 1022.5 hPa | 0 mm | - | - | - |
| 1777743021 | 15.56° C | 34% | 1022.5 hPa | 0 mm | - | - | - |
| 1777742721 | 15.56° C | 36% | 1022.5 hPa | 0 mm | - | - | - |
| 1777742421 | 15° C | 40% | 1022.5 hPa | 0 mm | - | - | - |
| 1777742091 | 15.56° C | 41% | 1022.5 hPa | 0 mm | - | - | - |
| 1777741791 | 15.56° C | 35% | 1022.5 hPa | 0 mm | - | - | - |
| 1777741491 | 15.56° C | 36% | 1022.5 hPa | 0 mm | - | - | - |
| 1777741191 | 15° C | 38% | 1022.5 hPa | 0 mm | - | - | - |
| 1777740861 | 14.44° C | 34% | 1022.6 hPa | 0 mm | - | - | - |
| 1777740561 | 15° C | 37% | 1022.6 hPa | 0 mm | - | - | - |
| 1777740230 | 15.56° C | 38% | 1022.6 hPa | 0 mm | - | - | - |
| 1777739931 | 15.56° C | 39% | 1022.7 hPa | 0 mm | - | - | - |
* Rain latest hour (hover to see other rain measurements)
** Current wind speed in m/s (hover to see current wind gust speed)